Starlink 32391

operational
NORAD ID: 61855 Int'l Des: 2024-202 Owner: SPXS Country: US Constellation: starlink
LEOCIRCULAR

About Starlink 32391

Description loading...

Live Position

Loading 3D Globe...

Upcoming Passes

Altitude History

Altitude vs Time

uPlot chart will show altitude changes over time

Two-Line Element Set

1 61855U 24202L 25350.28270358 .00003203 00000-0 12591-3 0 9994
2 61855 42.9995 348.8527 0001500 269.6237 90.4443 15.27573791 62574
Epoch: Dec 16, 2025 • Age: 20 hours

Current Status

Altitude 484.5 km
Velocity 7.62 km/s
Sub-Earth Point -10.23°S, 52.35°E
Launch Date Nov 7, 2024
Age 1.1 years
Type internet

Technical Details

Classification Payload
Mass 730.00 kg
Dry Mass 700.00 kg
Total Mass 730.00 kg
Length 0.30 m
Diameter 4.10 m
Span 29.00 m
Shape Box + pan
Manufacturer SPXS
Bus Type Starlink V2M
Phase Status In Orbit
Owner/State SPXS/US

Large Constellations

Loading constellations...